Terug naar catalogus

STARLINK-31989

ActiefCommunicatieVLEO
NORAD 59959·PAYLOAD·🇺🇸 United States

Gelanceerd Jun 5, 2024 vanaf Cape Canaveral Space Force Station

Loading…

Volgende Passages (komende 24 uur)

TLE

VersSource: CelesTrak SupGP

Epoch: Sep 14, 2026, 22:40 UTC

1 59959C 24107Q   26257.94493056  .00045240  00000+0  13367-2 0  2576
2 59959  53.1576 263.4112 0001281  89.3527 331.1629 15.34367192    18

Volg STARLINK-31989 in realtime met AllMySat

Download on the App Store